Simultaneous Nadir Overpasses (SNOs) Predictions

Prediction of SNOs between TERRA and METOP-C Satellite Orbit:

Table of predicted SNOs for the next 14.0 days since TLE Epoch: 5/16/2020
Index Date (TERRA) Time (TERRA) Lat,Lon (TERRA) SZA (TERRA ) Date (METOP-C) Time (METOP-C) Lat,Lon (METOP-C) SZA (METOP-C ) Distance(km) Time Diff (sec)
1 05/17/2020 13:28:51 81.04, 20.86 64.14 05/17/2020 13:27:37 81.20, 20.56 64.19 19.26 74
2 05/17/2020 14:18:06 -81.30,-167.19 115.20 05/17/2020 14:18:05 -81.31,-167.03 115.18 2.79 1
3 05/17/2020 15:07:32 81.31, 0.60 64.82 05/17/2020 15:08:45 81.31, 0.51 64.85 1.59 73
4 05/20/2020 09:02:53 81.31, 91.75 64.24 05/20/2020 09:01:46 81.31, 91.91 64.22 2.75 67
5 05/20/2020 09:52:20 -81.30,-100.70 115.79 05/20/2020 09:52:27 -81.31,-100.66 115.78 0.78 7
6 05/23/2020 04:37:08 81.31, 158.20 63.68 05/23/2020 04:36:09 81.30, 158.20 63.65 0.64 59
7 05/23/2020 05:26:35 -81.31, -34.23 116.34 05/23/2020 05:26:50 -81.31, -34.31 116.34 1.31 15
8 05/26/2020 00:11:23 81.31,-135.37 63.17 05/26/2020 00:10:32 81.30,-135.52 63.12 2.62 51
9 05/26/2020 01:00:50 -81.31, 32.23 116.85 05/26/2020 01:01:12 -81.31, 32.43 116.81 3.24 22
10 05/28/2020 19:45:38 81.31, -68.95 62.70 05/28/2020 19:44:54 81.31, -68.85 62.69 1.59 44




NCC Satellite Simultaneous Nadir Overpasses (SNOs) Prediction Service
